Eureka, NV

8:21 PM PDT on July 26, 2017 (GMT -0700)
Eureka

Weather History for KP68 - July, 2013

Change the Weather History Date:

Tuesday, July 2, 2013

  Actual Average Record
Temperature  
Mean Temperature 80 °F 66 °F  
Max Temperature 102 °F 86 °F 102 °F (2013)
Min Temperature 58 °F 47 °F 34 °F (1992)
Degree Days  
Heating Degree Days 0 1  
Month to date heating degree days 0 2  
Since 1 June heating degree days 80 162  
Since 1 July heating degree days 0 2  
Cooling Degree Days 15 3  
Month to date cooling degree days 28 5  
Year to date cooling degree days 121 37  
Since 1 June cooling degree days 120 34  
Growing Degree Days 30 (Base 50)    
Moisture  
Dew Point 39 °F    
Average Humidity 29    
Maximum Humidity 51    
Minimum Humidity 7    
Precipitation  
Precipitation 0.00 in 0.01 in 0.56 in (1980)
Month to date precipitation 0.00 0.02  
Year to date precipitation 3.13 5.10  
Sea Level Pressure  
Sea Level Pressure 29.94 in    
Wind  
Wind Speed 9 mph (SSE)    
Max Wind Speed 28 mph    
Max Gust Speed 33 mph    
T = Trace of Precipitation, MM = Missing Value Source: NWS Daily Summary

Daily Weather History Graph

Daily Weather History Graph

Search for Another Location

Airport or City:

Trip Planner

Search our weather history database for the weather conditions in past years. The results will help you decide how hot, cold, wet, or windy it might be!

Date:

Astronomy

Jul. 02, 2013 Rise Set
Actual Time 5:20 AM PDT 8:14 PM PDT
Civil Twilight 4:48 AM PDT 8:47 PM PDT
Nautical Twilight 4:07 AM PDT 9:27 PM PDT
Astronomical Twilight 3:20 AM PDT 10:14 PM PDT
Moon 1:25 AM PDT (7/2) 3:33 PM PDT (7/2)
Length of Visible Light 15h 58m
Length of Day
14h 53m
Waning Crescent, 25% of the Moon is Illuminated
Jul 2
Waning Crescent
Jul 8
New
Jul 15
First Quarter
Jul 22
Full
Jul 29
Last Quarter

Hourly Weather History & Observations

Time (PDT) Temp. Dew Point Humidity Pressure Visibility Wind Dir Wind Speed Gust Speed Precip Events Conditions
12:53 AM 64.0 °F 42.1 °F 45% 29.97 in - South 8.1 mph - N/A   Unknown
1:53 AM 63.0 °F 43.0 °F 48% 29.98 in - ESE 11.5 mph - N/A   Unknown
2:53 AM 64.0 °F 41.0 °F 43% 29.98 in - SSW 4.6 mph - N/A   Unknown
3:53 AM 62.1 °F 41.0 °F 46% 30.00 in - South 8.1 mph - N/A   Unknown
4:53 AM 59.0 °F 41.0 °F 51% 30.01 in - SE 4.6 mph - N/A   Unknown
5:53 AM 61.0 °F 39.9 °F 46% 30.02 in - SSW 8.1 mph - N/A   Unknown
6:53 AM 66.9 °F 42.1 °F 40% 30.01 in - South 3.5 mph - N/A   Unknown
7:53 AM 75.9 °F 41.0 °F 29% 29.99 in - SSW 3.5 mph - N/A   Unknown
8:53 AM 82.9 °F 39.9 °F 22% 29.99 in - ENE 4.6 mph - N/A   Unknown
9:53 AM 88.0 °F 39.0 °F 18% 29.97 in - North 8.1 mph - N/A   Unknown
10:53 AM 91.0 °F 41.0 °F 17% 29.96 in - NNE 8.1 mph - N/A   Unknown
11:53 AM 91.9 °F 37.0 °F 15% 29.95 in - Calm Calm - N/A   Unknown
12:53 PM 97.0 °F 35.1 °F 11% 29.92 in - North - - N/A   Unknown
1:53 PM 100.9 °F 26.1 °F 7% 29.88 in - North 11.5 mph 16.1 mph N/A   Unknown
2:53 PM 100.0 °F 34.0 °F 10% 29.86 in - ENE 16.1 mph - N/A   Unknown
3:53 PM 98.1 °F 37.0 °F 12% 29.87 in - East 21.9 mph 31.1 mph N/A   Unknown
4:53 PM 95.0 °F 35.1 °F 12% 29.88 in - East 11.5 mph - N/A   Unknown
5:53 PM 91.9 °F 37.0 °F 15% 29.89 in - WSW 16.1 mph - N/A   Unknown
6:53 PM 90.0 °F 37.0 °F 15% 29.88 in - NW 19.6 mph 25.3 mph N/A   Unknown
7:53 PM 86.0 °F 37.9 °F 18% 29.89 in - NNW 13.8 mph 24.2 mph N/A   Unknown
8:53 PM 78.1 °F 39.9 °F 25% 29.91 in - East 6.9 mph - N/A   Unknown
9:53 PM 77.0 °F 39.9 °F 26% 29.91 in - SSW 8.1 mph - N/A   Unknown
10:53 PM 72.0 °F 41.0 °F 33% 29.92 in - SW 6.9 mph - N/A   Unknown
11:53 PM 77.0 °F 41.0 °F 28% 29.91 in - WSW 4.6 mph - N/A   Unknown